WetterOnline ( https://www.wetteronline.de )

Wetter aktuell Cima Termine

Aktuelles Wetter: Passo di Resia (1461m)

6-stündlich | Neueste Meldungen
Ortszeit Temperatur Wetter
Fr, 19.07. 8:00 14.4° C wolkenlos
Fr, 19.07. 2:00 15.4° C wolkenlos
Do, 18.07. 20:00 21.6° C fast wolkenlos
Do, 18.07. 14:00 21.0° C leicht bewölkt
Do, 18.07. 8:00 13.8° C leicht bewölkt
Do, 18.07. 2:00 14.8° C leicht bewölkt
Mi, 17.07. 20:00 18.0° C leicht bewölkt
Mi, 17.07. 14:00 21.4° C bewölkt
Ortszeit Temperatur Wetter
Fr, 19.07. 13:00 22.0° C leicht bewölkt
Fr, 19.07. 12:00 20.6° C leicht bewölkt
Fr, 19.07. 11:00 18.0° C leicht bewölkt
Fr, 19.07. 10:00 16.4° C leicht bewölkt
Fr, 19.07. 9:00 15.2° C wolkenlos
Fr, 19.07. 8:00 14.4° C wolkenlos
Fr, 19.07. 7:00 14.4° C wolkenlos
Ortszeit Relative Feuchte Sichtweite
Fr, 19.07. 8:00 95% 10 km
Fr, 19.07. 2:00 85% 10 km
Do, 18.07. 20:00 67% 10 km
Do, 18.07. 14:00 59% 10 km
Do, 18.07. 8:00 95% 10 km
Do, 18.07. 2:00 92% 10 km
Mi, 17.07. 20:00 77% 10 km
Mi, 17.07. 14:00 69% 10 km
Ortszeit Relative Feuchte Sichtweite
Fr, 19.07. 13:00 62% 10 km
Fr, 19.07. 12:00 67% 10 km
Fr, 19.07. 11:00 78% 10 km
Fr, 19.07. 10:00 84% 10 km
Fr, 19.07. 9:00 95% 10 km
Fr, 19.07. 8:00 95% 10 km
Fr, 19.07. 7:00 95% 10 km
Ortszeit Niederschlagsmenge Niederschlagsart
Fr, 19.07. 8:00 0.0 l/m2 in 12 Std. -
Fr, 19.07. 2:00 0.0 l/m2 in 6 Std. -
Do, 18.07. 20:00 0.0 l/m2 in 12 Std. -
Do, 18.07. 14:00 0.0 l/m2 in 6 Std. -
Do, 18.07. 8:00 0.0 l/m2 in 12 Std. -
Do, 18.07. 2:00 0.0 l/m2 in 6 Std. -
Mi, 17.07. 20:00 0.0 l/m2 in 12 Std. -
Mi, 17.07. 14:00 0.0 l/m2 in 6 Std. -
Ortszeit Niederschlagsmenge Niederschlagsart
Fr, 19.07. 13:00 keine Meldung -
Fr, 19.07. 12:00 keine Meldung -
Fr, 19.07. 11:00 keine Meldung -
Fr, 19.07. 10:00 keine Meldung -
Fr, 19.07. 9:00 keine Meldung -
Fr, 19.07. 8:00 keine Meldung -
Fr, 19.07. 7:00 keine Meldung -
Ortszeit Stärke Spitze Richtung
km/h Bft. km/h Grad Sektor
Fr, 19.07. 8:00 7 2 - 30° NO
Fr, 19.07. 2:00 4 1 - 30° NO
Do, 18.07. 20:00 0 0 - - -
Do, 18.07. 14:00 9 2 - 190° S
Do, 18.07. 8:00 7 2 - 30° NO
Do, 18.07. 2:00 7 2 - 10° N
Mi, 17.07. 20:00 7 2 - 360° N
Mi, 17.07. 14:00 9 2 - 170° S
Ortszeit Stärke Spitze Richtung
km/h Bft. km/h Grad Sektor
Fr, 19.07. 13:00 7 2 - 200° S
Fr, 19.07. 12:00 7 2 - 210° SW
Fr, 19.07. 11:00 4 1 - 240° SW
Fr, 19.07. 10:00 6 1 - 320° NW
Fr, 19.07. 9:00 6 1 - 350° N
Fr, 19.07. 8:00 7 2 - 30° NO
Fr, 19.07. 7:00 6 1 - 20° N
Ortszeit Untergrenze Bedeckung Gattung
total tief tief mittel hoch
Fr, 19.07. 8:00 - 0/8 0/8 - - -
Fr, 19.07. 2:00 - 0/8 0/8 - - -
Do, 18.07. 20:00 600 m 1/8 1/8 Cu - -
Do, 18.07. 14:00 900 m 3/8 3/8 Cu - -
Do, 18.07. 8:00 600 m 2/8 2/8 Cu - -
Do, 18.07. 2:00 1800 m 4/8 4/8 - Ac -
Mi, 17.07. 20:00 750 m 2/8 2/8 Cu - -
Mi, 17.07. 14:00 600 m 8/8 4/8 Cu Ac -
Ortszeit Bedeckungsgrad in Achtel und Wolkenuntergrenze
Fr, 19.07. 13:00 2(600m)
Fr, 19.07. 12:00 2(600m)
Fr, 19.07. 11:00 2(600m)
Fr, 19.07. 10:00 2(600m)
Fr, 19.07. 9:00 keine Wolken
Fr, 19.07. 8:00 keine Wolken
Fr, 19.07. 7:00 keine Wolken
Ortszeit Stationsdruck (hPa) Tendenz (hPa in 3 Std.)
Fr, 19.07. 8:00 860 - 0,8
Fr, 19.07. 2:00 861 + 1,0
Do, 18.07. 20:00 860 + 0,2
Do, 18.07. 14:00 860 - 0,2
Do, 18.07. 8:00 861 + 0,4
Do, 18.07. 2:00 861 + 0,5
Mi, 17.07. 20:00 859 + 0,1
Mi, 17.07. 14:00 858 0,0
Ortszeit Stationsdruck (hPa) Tendenz (hPa in 3 Std.)
Fr, 19.07. 13:00 859 - 0,9
Fr, 19.07. 12:00 860 - 0,5
Fr, 19.07. 11:00 860 0,0
Fr, 19.07. 10:00 860 + 0,2
Fr, 19.07. 9:00 860 - 0,8
Fr, 19.07. 8:00 860 - 0,8
Fr, 19.07. 7:00 860 - 1,2
Ortszeit Schneehöhe (cm)
Fr, 19.07. 8:00 0
Fr, 19.07. 2:00 -
Do, 18.07. 20:00 -
Do, 18.07. 14:00 -
Do, 18.07. 8:00 0
Do, 18.07. 2:00 -
Mi, 17.07. 20:00 -
Mi, 17.07. 14:00 -
Ortszeit Schneehöhe (cm)
Fr, 19.07. 13:00 -
Fr, 19.07. 12:00 -
Fr, 19.07. 11:00 -
Fr, 19.07. 10:00 -
Fr, 19.07. 9:00 -
Fr, 19.07. 8:00 0
Fr, 19.07. 7:00 -
Link zu dieser Seite / Seite empfehlen

Das Wetter in ...